Location: Unspecified
(48.2082°N, 0.0000°E)
Time: 02:17:16
(UTC+00:00)

S-56A Canister/Altair - Pass Details

Date: 20 June 2019
Orbit: 632 x 2500 km, 38.9° (Epoch: 15 July)

Event Time Altitude Azimuth Distance (km) Brightness Sun altitude
Rises 16:40:33 0° 232° (SW) 4,809 12.3 30.5°
Reaches altitude 10° 16:44:38 10° 222° (SW) 3,487 11.5 29.9°
Maximum altitude 16:51:30 29° 167° (SSE) 1,851 9.5 28.7°
Drops below altitude 10° 16:56:32 10° 109° (ESE) 2,504 9.7 27.9°
Sets 16:58:59 0° 97° (E) 3,267 10.2 27.5°
